This is the latest recevied weather packets stored in our database for station/object DF2AP-13. If no packets are shown the sender has not sent any weather packets the latest 10 day(s).
| Time | Temp. | Humidity | Pressure | Rain* | Wind** | Luminosity | Snow |
|---|---|---|---|---|---|---|---|
| 1777518475 | -0.56° C | 66% | 1034.4 hPa | - | - | - | - |
| 1777517875 | -0.56° C | 66% | 1034.2 hPa | - | - | - | - |
| 1777517274 | 0° C | 65% | 1034.1 hPa | - | - | - | - |
| 1777516675 | 0° C | 64% | 1034.2 hPa | - | - | - | - |
| 1777516075 | 0° C | 63% | 1034.2 hPa | - | - | - | - |
| 1777515475 | 0.56° C | 62% | 1034.1 hPa | - | - | - | - |
| 1777514875 | 0.56° C | 62% | 1034.1 hPa | - | - | - | - |
| 1777514275 | 0.56° C | 61% | 1034.1 hPa | - | - | - | - |
| 1777513675 | 1.11° C | 59% | 1034.1 hPa | - | - | - | - |
| 1777513075 | 1.11° C | 59% | 1033.9 hPa | - | - | - | - |
| 1777512475 | 1.11° C | 58% | 1033.8 hPa | - | - | - | - |
| 1777511877 | 1.11° C | 58% | 1033.7 hPa | - | - | - | - |
| 1777511275 | 1.67° C | 58% | 1033.5 hPa | - | - | - | - |
| 1777510675 | 1.67° C | 57% | 1033.4 hPa | - | - | - | - |
| 1777510074 | 1.67° C | 56% | 1033.5 hPa | - | - | - | - |
| 1777509475 | 1.67° C | 56% | 1033.4 hPa | - | - | - | - |
| 1777508875 | 2.22° C | 56% | 1033.3 hPa | - | - | - | - |
| 1777508275 | 2.22° C | 55% | 1033.4 hPa | - | - | - | - |
| 1777507675 | 2.22° C | 55% | 1033.3 hPa | - | - | - | - |
| 1777507074 | 2.78° C | 54% | 1033.2 hPa | - | - | - | - |
| 1777506475 | 2.78° C | 54% | 1033.3 hPa | - | - | - | - |
| 1777505875 | 3.33° C | 54% | 1033.4 hPa | - | - | - | - |
| 1777505275 | 3.33° C | 53% | 1033.3 hPa | - | - | - | - |
| 1777504675 | 3.89° C | 51% | 1033.2 hPa | - | - | - | - |
| 1777504075 | 3.89° C | 51% | 1033.1 hPa | - | - | - | - |
* Rain since midnight (hover to see other rain measurements)
** Current wind speed in m/s (hover to see current wind gust speed)